TimeCST,TemperatureF,Dew PointF,Humidity,Sea Level PressureIn,VisibilityMPH,Wind Direction,Wind SpeedMPH,Gust SpeedMPH,PrecipitationIn,Events,Conditions,WindDirDegrees,DateUTC
12:12 AM,21.2,15.8,80,30.31,10.0,Calm,Calm,-,N/A,,Clear,0,2012-11-17 06:12:00
12:31 AM,24.8,19.4,80,30.31,10.0,Calm,Calm,-,N/A,,Mostly Cloudy,0,2012-11-17 06:31:00
12:51 AM,24.8,19.4,80,30.30,10.0,Calm,Calm,-,N/A,,Overcast,0,2012-11-17 06:51:00
1:12 AM,24.8,19.4,80,30.30,10.0,Calm,Calm,-,N/A,,Overcast,0,2012-11-17 07:12:00
1:31 AM,24.8,19.4,80,30.30,10.0,Calm,Calm,-,N/A,,Overcast,0,2012-11-17 07:31:00
1:51 AM,24.8,19.4,80,30.29,10.0,Calm,Calm,-,N/A,,Scattered Clouds,0,2012-11-17 07:51:00
2:11 AM,23.0,19.4,86,30.30,10.0,Calm,Calm,-,N/A,,Clear,0,2012-11-17 08:11:00
2:31 AM,21.2,17.6,86,30.29,10.0,Calm,Calm,-,N/A,,Clear,0,2012-11-17 08:31:00
2:51 AM,21.2,15.8,80,30.28,10.0,Calm,Calm,-,N/A,,Clear,0,2012-11-17 08:51:00
3:11 AM,21.2,17.6,86,30.28,10.0,Calm,Calm,-,N/A,,Clear,0,2012-11-17 09:11:00
3:31 AM,19.4,15.8,86,30.28,10.0,Calm,Calm,-,N/A,,Clear,0,2012-11-17 09:31:00
3:51 AM,19.4,15.8,86,30.27,10.0,Calm,Calm,-,N/A,,Clear,0,2012-11-17 09:51:00
4:12 AM,19.4,15.8,86,30.27,10.0,Calm,Calm,-,N/A,,Clear,0,2012-11-17 10:12:00
4:31 AM,21.2,15.8,80,30.26,7.0,Calm,Calm,-,N/A,,Clear,0,2012-11-17 10:31:00
4:51 AM,19.4,15.8,86,30.26,7.0,Calm,Calm,-,N/A,,Clear,0,2012-11-17 10:51:00
5:12 AM,21.2,17.6,86,30.26,7.0,Calm,Calm,-,N/A,,Clear,0,2012-11-17 11:12:00
5:31 AM,19.4,15.8,86,30.25,7.0,Calm,Calm,-,N/A,,Clear,0,2012-11-17 11:31:00
5:51 AM,23.0,17.6,80,30.25,5.0,Calm,Calm,-,N/A,,Haze,0,2012-11-17 11:51:00
6:11 AM,24.8,19.4,80,30.24,5.0,Calm,Calm,-,N/A,,Haze,0,2012-11-17 12:11:00
6:31 AM,24.8,19.4,80,30.24,5.0,Calm,Calm,-,N/A,,Haze,0,2012-11-17 12:31:00
6:52 AM,24.8,21.2,86,30.24,5.0,Calm,Calm,-,N/A,,Clear,0,2012-11-17 12:52:00
7:11 AM,26.6,21.2,80,30.24,5.0,Calm,Calm,-,N/A,,Haze,0,2012-11-17 13:11:00
7:31 AM,26.6,23.0,86,30.24,4.0,Calm,Calm,-,N/A,,Clear,0,2012-11-17 13:31:00
7:52 AM,26.6,21.2,80,30.24,4.0,Calm,Calm,-,N/A,,Haze,0,2012-11-17 13:52:00
8:11 AM,28.4,24.8,86,30.24,4.0,Calm,Calm,-,N/A,,Haze,0,2012-11-17 14:11:00
8:31 AM,32.0,26.6,80,30.24,5.0,Calm,Calm,-,N/A,,Haze,0,2012-11-17 14:31:00
8:51 AM,33.8,30.2,87,30.24,7.0,Calm,Calm,-,N/A,,Clear,0,2012-11-17 14:51:00
9:11 AM,37.4,32.0,81,30.24,7.0,Calm,Calm,-,N/A,,Clear,0,2012-11-17 15:11:00
9:32 AM,39.2,33.8,81,30.24,7.0,South,5.8,-,N/A,,Clear,190,2012-11-17 15:32:00
9:51 AM,41.0,32.0,70,30.24,7.0,SSW,6.9,-,N/A,,Clear,200,2012-11-17 15:51:00
10:11 AM,42.8,33.8,70,30.24,10.0,SSW,8.1,-,N/A,,Clear,200,2012-11-17 16:11:00
10:31 AM,42.8,32.0,66,30.24,10.0,South,12.7,-,N/A,,Clear,190,2012-11-17 16:31:00
10:51 AM,44.6,33.8,66,30.23,10.0,SSW,10.4,-,N/A,,Clear,200,2012-11-17 16:51:00
11:11 AM,46.4,33.8,62,30.23,10.0,South,16.1,19.6,N/A,,Clear,190,2012-11-17 17:11:00
11:31 AM,46.4,33.8,62,30.22,10.0,SSW,12.7,18.4,N/A,,Clear,210,2012-11-17 17:31:00
11:52 AM,46.4,33.8,62,30.21,10.0,SSW,9.2,-,N/A,,Clear,200,2012-11-17 17:52:00
12:11 PM,46.4,33.8,62,30.21,10.0,SSW,9.2,-,N/A,,Clear,200,2012-11-17 18:11:00
12:31 PM,48.2,33.8,58,30.20,10.0,SSW,8.1,-,N/A,,Clear,200,2012-11-17 18:31:00
12:52 PM,48.2,33.8,58,30.20,10.0,South,9.2,-,N/A,,Clear,170,2012-11-17 18:52:00
1:11 PM,48.2,33.8,58,30.20,10.0,South,6.9,-,N/A,,Clear,170,2012-11-17 19:11:00
1:31 PM,48.2,33.8,58,30.19,10.0,South,5.8,-,N/A,,Clear,180,2012-11-17 19:31:00
1:52 PM,48.2,33.8,58,30.19,10.0,South,8.1,-,N/A,,Clear,170,2012-11-17 19:52:00
2:11 PM,46.4,33.8,62,30.19,10.0,South,5.8,-,N/A,,Clear,180,2012-11-17 20:11:00
2:31 PM,46.4,33.8,62,30.19,10.0,South,4.6,-,N/A,,Clear,180,2012-11-17 20:31:00
2:51 PM,46.4,33.8,62,30.19,10.0,SE,3.5,-,N/A,,Clear,140,2012-11-17 20:51:00
3:11 PM,46.4,35.6,66,30.20,10.0,ESE,3.5,-,N/A,,Clear,120,2012-11-17 21:11:00
3:32 PM,44.6,33.8,66,30.20,10.0,Calm,Calm,-,N/A,,Clear,0,2012-11-17 21:32:00
3:51 PM,42.8,33.8,70,30.20,10.0,Calm,Calm,-,N/A,,Clear,0,2012-11-17 21:51:00
4:11 PM,42.8,33.8,70,30.20,10.0,Calm,Calm,-,N/A,,Clear,0,2012-11-17 22:11:00
4:32 PM,39.2,33.8,81,30.20,10.0,Calm,Calm,-,N/A,,Clear,0,2012-11-17 22:32:00
4:51 PM,39.2,32.0,75,30.20,10.0,Calm,Calm,-,N/A,,Clear,0,2012-11-17 22:51:00
5:11 PM,37.4,30.2,75,30.20,10.0,ENE,4.6,-,N/A,,Clear,60,2012-11-17 23:11:00
5:32 PM,37.4,30.2,75,30.20,10.0,NNE,4.6,-,N/A,,Clear,30,2012-11-17 23:32:00
5:51 PM,37.4,30.2,75,30.20,10.0,NNE,3.5,-,N/A,,Clear,30,2012-11-17 23:51:00
6:11 PM,37.4,30.2,75,30.20,10.0,NE,3.5,-,N/A,,Clear,40,2012-11-18 00:11:00
6:32 PM,37.4,30.2,75,30.20,10.0,Calm,Calm,-,N/A,,Clear,0,2012-11-18 00:32:00
6:51 PM,37.4,32.0,81,30.20,10.0,Calm,Calm,-,N/A,,Clear,0,2012-11-18 00:51:00
7:11 PM,37.4,32.0,81,30.20,10.0,Calm,Calm,-,N/A,,Scattered Clouds,0,2012-11-18 01:11:00
7:32 PM,37.4,32.0,81,30.20,10.0,Calm,Calm,-,N/A,,Mostly Cloudy,0,2012-11-18 01:32:00
7:51 PM,37.4,32.0,81,30.20,10.0,Calm,Calm,-,N/A,,Overcast,0,2012-11-18 01:51:00
8:11 PM,37.4,30.2,75,30.20,10.0,Calm,Calm,-,N/A,,Mostly Cloudy,0,2012-11-18 02:11:00
8:32 PM,39.2,33.8,81,30.21,10.0,Calm,Calm,-,N/A,,Overcast,0,2012-11-18 02:32:00
8:51 PM,37.4,33.8,87,30.21,7.0,Calm,Calm,-,N/A,,Overcast,0,2012-11-18 02:51:00
9:11 PM,39.2,33.8,81,30.21,7.0,Calm,Calm,-,N/A,,Mostly Cloudy,0,2012-11-18 03:11:00
9:32 PM,37.4,33.8,87,30.21,7.0,Calm,Calm,-,N/A,,Overcast,0,2012-11-18 03:32:00
9:51 PM,39.2,33.8,81,30.22,7.0,Calm,Calm,-,N/A,,Overcast,0,2012-11-18 03:51:00
10:11 PM,41.0,35.6,81,30.22,7.0,WNW,3.5,-,N/A,Rain,Light Rain,300,2012-11-18 04:11:00
10:31 PM,39.2,35.6,87,30.22,7.0,Calm,Calm,-,N/A,,Drizzle,0,2012-11-18 04:31:00
10:51 PM,39.2,35.6,87,30.22,5.0,Calm,Calm,-,0.03,Rain,Light Rain,0,2012-11-18 04:51:00
11:11 PM,41.0,35.6,81,30.22,7.0,Calm,Calm,-,0.01,Rain,Rain,0,2012-11-18 05:11:00
11:31 PM,41.0,35.6,81,30.22,7.0,Calm,Calm,-,0.02,Rain,Light Rain,0,2012-11-18 05:31:00
11:51 PM,39.2,35.6,87,30.22,7.0,Calm,Calm,-,0.03,,Light Drizzle,0,2012-11-18 05:51:00